Regional Weather Roundup
Issued by NWS Upton, NY

Current Version | Previous Version | Text Only | Print | Product List | Glossary On
Versions: 1 2 3 4 5 6 7 8 9 10 11 12 13 14 15 16 17 18 19 20 21 22 23 24 25 26 27 28 29 30 31 32 33 34 35 36 37 38 39 40 41 42 43 44 45 46 47 48 49 50
000
ASUS41 KOKX 011705
RWROKX

REGIONAL WEATHER ROUNDUP
NATIONAL WEATHER SERVICE NEW YORK NY
100 PM EDT MON SEP 01 2014

NOTE: "FAIR" INDICATES FEW OR NO CLOUDS BELOW 12,000 FEET WITH NO
SIGNIFICANT WEATHER AND/OR OBSTRUCTIONS TO VISIBILITY.

NYZ071-072-176-178-NJZ106-104-011800-
NEW YORK CITY METRO AREA


CITY           SKY/WX    TMP DP  RH WIND       PRES   REMARKS
CENTRAL PARK   CLOUDY    86  69  56 VRB3      30.01S HX  90
LAGUARDIA APRT PTSUNNY   85  68  56 VRB5      29.97F
KENNEDY INTL   PTSUNNY   83  73  72 S12       29.99F
NEWARK/LIBERTY PTSUNNY   87  70  56 SW10      29.97F HX  92
BRNX BOT. GARD   N/A     84  68  58 SW7       29.99S
TETERBORO      PTSUNNY   87  69  54 S10       29.96F HX  91
$$

NYZ177-179-078>081-011800-
LONG ISLAND NEW YORK

CITY           SKY/WX    TMP DP  RH WIND       PRES   REMARKS
FARMINGDALE    MOSUNNY   82  71  69 S9        29.98F
ISLIP          PTSUNNY   83  72  69 VRB6      29.97F
SHIRLEY        PTSUNNY   82  72  71 S8        29.99F
WESTHAMPTON    PTSUNNY   83  71  67 SW10      30.00F
MONTAUK POINT    N/A     79  72  79 S5        29.99F
$$

NYZ052-065-067-011800-
HUDSON VALLEY

CITY           SKY/WX    TMP DP  RH WIND       PRES   REMARKS
WHITE PLAINS   PTSUNNY   84  71  65 VRB6      29.98F
NEWBURGH       PTSUNNY   82  72  69 SW12      30.00F
MONTGOMERY     CLOUDY    83  69  62 VRB7      29.98F
POUGHKEEPSIE   PTSUNNY   85  69  58 SW8       29.96F
ALBANY         MOSUNNY   82  66  58 W8        29.97F
$$

NJZ001-105-106-008-010-013-015-019>022-104-011800-
NEW JERSEY

CITY           SKY/WX    TMP DP  RH WIND       PRES   REMARKS
NEWARK/LIBERTY PTSUNNY   87  70  56 SW10      29.97F HX  92
TETERBORO      PTSUNNY   87  69  54 S10       29.96F HX  91
CALDWELL       PTSUNNY   85  67  54 W8        29.98F
MORRISTOWN     CLOUDY    84  70  61 SW10      29.99F
SOMERVILLE     CLOUDY    85  70  60 CALM      29.96F
LINDEN         CLOUDY    89  72  57 CALM      29.99F HX  96
SUSSEX         CLOUDY    85  72  65 S5        29.99F HX  91
ANDOVER          N/A     82  70  66 VRB5      30.00F
TRENTON        PTSUNNY   83  71  67 VRB3      29.98F
MILLVILLE      MOSUNNY   85  72  65 CALM      30.00F HX  91
ATLANTIC CITY  MOSUNNY   85  72  65 VRB5      30.00F HX  91
WRIGHTSTOWN    PTSUNNY   85  73  68 VRB6      29.97F HX  92
TOMS RIVER     PTSUNNY   86  72  62 W7        30.00F HX  92
BELMAR         PTSUNNY   82  72  69 SW6       30.00F
$$

PAZ047>061-062-071-011800-
EASTERN PENNSYLVANIA

CITY           SKY/WX    TMP DP  RH WIND       PRES   REMARKS
PHILADELPHIA   MOSUNNY   85  72  65 SW8       29.99F HX  91
ALLENTOWN      PTSUNNY   85  68  56 VRB6      29.99F
SCRANTON       CLOUDY    80  68  66 SW8       30.01F
$$

CTZ002-004>006-009-010-012-RIZ004-006-007-MAZ004-011-015-011800-
SOUTHERN NEW ENGLAND
 IN CT

CITY           SKY/WX    TMP DP  RH WIND       PRES   REMARKS
BRADLEY INTL   PTSUNNY   83  69  62 S6        29.96F
HARTFORD       MOSUNNY   83  69  62 SE6       29.96F
DANBURY        PTSUNNY   82  68  62 W7        30.00S
WTRBRY/OXFORD  PTSUNNY   82  72  69 SW6       30.02F
BRIDGEPORT     MOSUNNY   83  72  69 SW9       29.97F
MERIDEN        CLOUDY    83  69  62 S6        29.97F
NEW HAVEN      MOSUNNY   82  71  69 SW8       29.97F
CHESTER        PTSUNNY   82  72  69 S8        29.99S
GROTON         MOSUNNY   79  73  82 SW10      29.97F
WILLIMANTIC    PTSUNNY   82  70  66 SW5       29.97F

 IN RI

CITY           SKY/WX    TMP DP  RH WIND       PRES   REMARKS
PROVIDENCE     PTSUNNY   82  72  71 S12       29.96F
BLOCK ISLAND   MOSUNNY   77  70  78 SW12      29.99F
WESTERLY       SUNNY     80  71  74 SW9       29.98F

 IN MA

CITY           SKY/WX    TMP DP  RH WIND       PRES   REMARKS
BOSTON         PTSUNNY   84  67  56 SE8       29.94F
WORCESTER      MOSUNNY   80  65  59 W8        30.00F
WESTFIELD      CLOUDY    84  70  62 S9        29.96F
PROVINCETOWN   SUNNY     81  73  78 S12       29.96F
NANTUCKET      PTSUNNY   75  70  84 SW12      29.98F
$$

ANZ330-335-338-340-345-350-353-355-011800-
COASTAL MARINE OBSERVATIONS


STATION/POSITION TIME  SKY/WX   TEMP    WIND        PRES    VSBY  WAVE
                                AIR SEA DIR/SP/G                  HT/PER
                 (UTC)          (F)     (DEG/KT/KT) (MB)    (MI)  (FT/S)
NY HARB ENTRANCE NOT AVBL
4S FIRE IS       NOT AVBL
23SW MTP         1700                                 N/A           3/ 5
HUDSON CANYON    1700            74 74  240/  8/ 10 1015.9          4/ 6
EXECUTION ROCKS  1700            82 74  200/  6/  6   N/A
WESTERN LI SOUND 1700            80     220/  4/  4   N/A           1
CENTRAL LI SOUND 1600            74 75  280/  4/  4   N/A           1
EASTERN LI SOUND 1600            75 71  240/  6/  6   N/A
ROBBINS REEF     1700            79     160/ 15/ 17   N/A
$$


>>>>>>>>>>>>>>>>>>>>>>>>>>>> KEY <<<<<<<<<<<<<<<<<<<<<<<<<<<
>                                                          <
>     SKY/WX - SKY CONDITION/PRESENT WEATHER               <
>     TMP    - TEMPERATURE IN FAHRENHEIT                   <
>     DP     - DEWPOINT IN FAHRENHEIT                      <
>     RH     - RELATIVE HUMIDITY IN PERCENT                <
>     WIND   - DIRECTION AND SPEED IN MPH                  <
>     PRES   - MEAN SEA LEVEL PRESSURE IN INCHES OF HG     <
>     WCI    - WIND CHILL INDEX                            <
>     VSB    - VISIBILITY IN MILES                         <
>     HX     - HEAT INDEX                                  <
>     TC     - TEMPERATURE IN CELSIUS                      <
>     VRB    - VARIABLE WIND DIRECTION                     <
>                                                          <
>>>>>>>>>>>>>>>>>>>>>>>>>>>> KEY <<<<<<<<<<<<<<<<<<<<<<<<<<<




USA.gov is the U.S. government's official web portal to all federal, state and local government web resources and services.